Location: Kapla
(46.2483°N, 15.0094°E)
Time: 15:45:31
(UTC+00:00)

COSMOS 2428 - Pass Details

Date: 03 March 2021
Orbit: 845 x 858 km, 70.9° (Epoch: 18 April)

Event Time Altitude Azimuth Distance (km) Brightness Sun altitude
Rises 17:35:13 0° 149° (SSE) 3,392 5.5 -8.8°
Reaches altitude 10° 17:39:04 10° 122° (ESE) 2,465 4.6 -9.4°
Maximum altitude 17:41:31 13° 96° (E) 2,259 4.3 -9.8°
Enters shadow 17:42:23 13° 87° (E) 2,287 4.3 -10.0°
